Time,TemperatureF,DewpointF,PressureIn,WindDirection,WindDirectionDegrees,WindSpeedMPH,WindSpeedGustMPH,Humidity,HourlyPrecipIn,Conditions,Clouds,dailyrainin,SoftwareType,DateUTC
2013-02-19 00:01:00,34.8,31.6,30.25,SSE,151,0.0,0.0,88,0.00,,,0.06,Wunderground v.1.15,2013-02-19 05:01:00,
2013-02-19 00:11:00,34.2,31.0,30.25,SSE,151,0.0,0.0,88,0.00,,,0.00,Wunderground v.1.15,2013-02-19 05:11:00,
2013-02-19 00:20:00,34.0,31.1,30.25,SSE,151,0.0,0.0,89,0.00,,,0.01,Wunderground v.1.15,2013-02-19 05:20:00,
2013-02-19 00:26:00,34.1,31.5,30.25,SSE,151,0.0,0.0,90,0.00,,,0.01,Wunderground v.1.15,2013-02-19 05:26:00,
2013-02-19 00:30:00,33.9,31.3,30.25,SSE,151,0.0,0.0,90,0.00,,,0.01,Wunderground v.1.15,2013-02-19 05:30:00,
2013-02-19 00:35:00,33.6,31.0,30.25,SSE,151,0.0,0.0,90,0.00,,,0.01,Wunderground v.1.15,2013-02-19 05:35:00,
2013-02-19 00:45:00,33.9,31.3,30.24,SSE,151,0.0,0.0,90,0.00,,,0.01,Wunderground v.1.15,2013-02-19 05:45:00,
2013-02-19 00:55:00,33.9,31.6,30.23,SSE,151,0.0,0.0,91,0.00,,,0.01,Wunderground v.1.15,2013-02-19 05:55:00,
2013-02-19 01:01:00,34.0,31.6,30.23,SSE,151,0.0,0.0,91,0.00,,,0.01,Wunderground v.1.15,2013-02-19 06:01:00,
2013-02-19 01:10:00,34.6,32.5,30.23,SSE,151,0.0,0.0,92,0.00,,,0.01,Wunderground v.1.15,2013-02-19 06:10:00,
2013-02-19 01:20:00,34.3,31.9,30.23,SSE,151,0.0,0.0,91,0.00,,,0.01,Wunderground v.1.15,2013-02-19 06:20:00,
2013-02-19 01:30:00,34.2,32.1,30.23,SSE,151,0.0,0.0,92,0.00,,,0.01,Wunderground v.1.15,2013-02-19 06:30:00,
2013-02-19 01:36:00,34.1,31.7,30.23,SSE,151,0.0,0.0,91,0.00,,,0.02,Wunderground v.1.15,2013-02-19 06:36:00,
2013-02-19 01:45:00,34.0,31.6,30.22,SSE,151,0.0,0.0,91,0.00,,,0.02,Wunderground v.1.15,2013-02-19 06:45:00,
2013-02-19 01:50:00,34.1,31.7,30.22,SSE,151,0.0,0.0,91,0.00,,,0.02,Wunderground v.1.15,2013-02-19 06:50:00,
2013-02-19 01:56:00,34.3,31.9,30.21,SSE,151,0.0,0.0,91,0.00,,,0.02,Wunderground v.1.15,2013-02-19 06:56:00,
2013-02-19 02:05:00,34.4,32.0,30.21,SSE,151,0.0,0.0,91,0.00,,,0.02,Wunderground v.1.15,2013-02-19 07:05:00,
2013-02-19 02:11:00,34.8,32.4,30.21,SSE,151,0.0,0.0,91,0.00,,,0.02,Wunderground v.1.15,2013-02-19 07:11:00,
2013-02-19 02:20:00,35.6,33.2,30.21,SSE,151,0.0,0.0,91,0.00,,,0.02,Wunderground v.1.15,2013-02-19 07:20:00,
2013-02-19 02:31:00,35.5,32.9,30.20,SSE,151,0.0,0.0,90,0.00,,,0.02,Wunderground v.1.15,2013-02-19 07:31:00,
2013-02-19 02:41:00,36.0,33.4,30.19,SSE,151,0.0,0.0,90,0.00,,,0.02,Wunderground v.1.15,2013-02-19 07:41:00,
2013-02-19 02:50:00,36.2,33.8,30.19,SSE,151,0.0,0.0,91,0.00,,,0.02,Wunderground v.1.15,2013-02-19 07:50:00,
2013-02-19 03:00:00,36.4,34.0,30.18,SSE,151,0.0,0.0,91,0.00,,,0.02,Wunderground v.1.15,2013-02-19 08:00:00,
2013-02-19 03:11:00,36.5,34.1,30.18,SSE,151,0.0,0.0,91,0.00,,,0.02,Wunderground v.1.15,2013-02-19 08:11:00,
2013-02-19 03:21:00,36.7,34.6,30.17,SSE,151,0.0,0.0,92,0.00,,,0.03,Wunderground v.1.15,2013-02-19 08:21:00,
2013-02-19 03:31:00,37.2,35.1,30.16,SSE,151,0.0,0.0,92,0.00,,,0.03,Wunderground v.1.15,2013-02-19 08:31:00,
2013-02-19 03:40:00,37.4,35.0,30.15,SE,130,2.0,2.0,91,0.00,,,0.03,Wunderground v.1.15,2013-02-19 08:40:00,
2013-02-19 03:45:00,37.5,35.4,30.15,SE,130,2.0,2.0,92,0.00,,,0.03,Wunderground v.1.15,2013-02-19 08:45:00,
2013-02-19 03:55:00,39.2,37.1,30.15,SE,130,0.0,1.0,92,0.00,,,0.03,Wunderground v.1.15,2013-02-19 08:55:00,
2013-02-19 04:00:00,39.9,38.0,30.15,SE,130,0.0,0.0,93,0.00,,,0.03,Wunderground v.1.15,2013-02-19 09:00:00,
2013-02-19 04:10:00,41.0,38.9,30.14,SE,130,0.0,0.0,92,0.00,,,0.03,Wunderground v.1.15,2013-02-19 09:10:00,
2013-02-19 04:16:00,41.7,39.3,30.14,SE,130,0.0,0.0,91,0.00,,,0.03,Wunderground v.1.15,2013-02-19 09:16:00,
2013-02-19 04:26:00,42.2,39.5,30.14,SE,130,0.0,0.0,90,0.00,,,0.03,Wunderground v.1.15,2013-02-19 09:26:00,
2013-02-19 04:36:00,42.6,39.6,30.14,SE,130,1.0,2.0,89,0.00,,,0.03,Wunderground v.1.15,2013-02-19 09:36:00,
2013-02-19 04:46:00,43.2,40.2,30.13,SE,130,2.0,2.0,89,0.00,,,0.03,Wunderground v.1.15,2013-02-19 09:46:00,
2013-02-19 04:55:00,41.9,38.6,30.14,WSW,242,1.0,2.0,88,0.00,,,0.03,Wunderground v.1.15,2013-02-19 09:55:00,
2013-02-19 05:06:00,42.5,39.5,30.13,WSW,242,0.0,1.0,89,0.00,,,0.04,Wunderground v.1.15,2013-02-19 10:06:00,
2013-02-19 05:16:00,42.7,39.4,30.12,SW,236,1.0,1.0,88,0.00,,,0.04,Wunderground v.1.15,2013-02-19 10:16:00,
2013-02-19 05:25:00,42.2,39.2,30.12,SW,236,1.0,2.0,89,0.00,,,0.04,Wunderground v.1.15,2013-02-19 10:25:00,
2013-02-19 05:30:00,42.2,39.2,30.11,SW,236,2.0,2.0,89,0.00,,,0.04,Wunderground v.1.15,2013-02-19 10:30:00,
2013-02-19 05:40:00,42.0,39.3,30.11,SW,236,1.0,1.0,90,0.00,,,0.04,Wunderground v.1.15,2013-02-19 10:40:00,
2013-02-19 05:50:00,42.8,40.4,30.11,SW,236,0.0,0.0,91,0.00,,,0.04,Wunderground v.1.15,2013-02-19 10:50:00,
2013-02-19 06:00:00,43.7,41.2,30.11,SW,236,1.0,1.0,91,0.00,,,0.04,Wunderground v.1.15,2013-02-19 11:00:00,
2013-02-19 06:05:00,43.8,41.3,30.11,SW,236,1.0,1.0,91,0.00,,,0.04,Wunderground v.1.15,2013-02-19 11:05:00,
2013-02-19 06:15:00,44.1,41.4,30.11,SW,236,1.0,1.0,90,0.00,,,0.04,Wunderground v.1.15,2013-02-19 11:15:00,
2013-02-19 06:20:00,44.3,41.6,30.11,SW,236,0.0,0.0,90,0.00,,,0.04,Wunderground v.1.15,2013-02-19 11:20:00,
2013-02-19 06:30:00,44.6,41.8,30.11,SW,236,0.0,0.0,90,0.00,,,0.04,Wunderground v.1.15,2013-02-19 11:30:00,
2013-02-19 06:35:00,44.8,42.0,30.11,SW,236,0.0,0.0,90,0.00,,,0.04,Wunderground v.1.15,2013-02-19 11:35:00,
2013-02-19 06:45:00,45.2,42.2,30.11,SW,236,1.0,1.0,89,0.00,,,0.04,Wunderground v.1.15,2013-02-19 11:45:00,
2013-02-19 06:55:00,45.4,42.6,30.11,SW,236,1.0,1.0,90,0.00,,,0.04,Wunderground v.1.15,2013-02-19 11:55:00,
2013-02-19 07:00:00,45.1,42.3,30.11,SW,236,0.0,1.0,90,0.00,,,0.04,Wunderground v.1.15,2013-02-19 12:00:00,
2013-02-19 07:06:00,45.1,42.3,30.11,SW,236,1.0,1.0,90,0.00,,,0.05,Wunderground v.1.15,2013-02-19 12:06:00,
2013-02-19 07:15:00,45.1,42.3,30.10,SW,236,1.0,1.0,90,0.00,,,0.05,Wunderground v.1.15,2013-02-19 12:15:00,
2013-02-19 07:21:00,44.9,42.1,30.10,SW,236,1.0,1.0,90,0.00,,,0.05,Wunderground v.1.15,2013-02-19 12:21:00,
2013-02-19 07:31:00,45.4,42.6,30.10,SW,236,1.0,1.0,90,0.00,,,0.05,Wunderground v.1.15,2013-02-19 12:31:00,
2013-02-19 07:41:00,46.7,43.9,30.09,SW,236,1.0,1.0,90,0.00,,,0.05,Wunderground v.1.15,2013-02-19 12:41:00,
2013-02-19 07:51:00,47.7,44.9,30.10,SW,236,0.0,0.0,90,0.00,,,0.05,Wunderground v.1.15,2013-02-19 12:51:00,
2013-02-19 08:00:00,48.7,45.6,30.11,SW,236,0.0,0.0,89,0.00,,,0.05,Wunderground v.1.15,2013-02-19 13:00:00,
2013-02-19 08:11:00,49.6,45.9,30.11,SW,236,1.0,2.0,87,0.00,,,0.05,Wunderground v.1.15,2013-02-19 13:11:00,
2013-02-19 08:20:00,50.2,46.2,30.11,SW,236,0.0,0.0,86,0.00,,,0.05,Wunderground v.1.15,2013-02-19 13:20:00,
2013-02-19 08:30:00,51.2,46.8,30.11,SW,236,1.0,1.0,85,0.00,,,0.05,Wunderground v.1.15,2013-02-19 13:30:00,
2013-02-19 08:35:00,51.5,47.5,30.11,SW,236,2.0,2.0,86,0.00,,,0.05,Wunderground v.1.15,2013-02-19 13:35:00,
2013-02-19 08:45:00,52.3,47.6,30.10,SE,136,3.0,3.0,84,0.00,,,0.05,Wunderground v.1.15,2013-02-19 13:45:00,
2013-02-19 08:56:00,53.6,48.2,30.10,SE,142,2.0,3.0,82,0.00,,,0.06,Wunderground v.1.15,2013-02-19 13:56:00,
2013-02-19 09:05:00,53.7,48.3,30.10,SE,144,1.0,2.0,82,0.00,,,0.06,Wunderground v.1.15,2013-02-19 14:05:00,
2013-02-19 09:15:00,55.5,49.4,30.10,SSW,194,3.0,4.0,80,0.00,,,0.06,Wunderground v.1.15,2013-02-19 14:15:00,
2013-02-19 09:25:00,56.1,49.3,30.10,SSW,200,3.0,3.0,78,0.00,,,0.06,Wunderground v.1.15,2013-02-19 14:25:00,
2013-02-19 09:35:00,57.1,49.6,30.09,SSW,209,4.0,5.0,76,0.00,,,0.06,Wunderground v.1.15,2013-02-19 14:35:00,
2013-02-19 09:45:00,58.0,49.4,30.09,SW,227,6.0,9.0,73,0.00,,,0.06,Wunderground v.1.15,2013-02-19 14:45:00,
2013-02-19 09:55:00,58.1,49.1,30.09,SSW,203,6.0,7.0,72,0.00,,,0.06,Wunderground v.1.15,2013-02-19 14:55:00,
2013-02-19 10:05:00,58.3,49.3,30.09,SSW,207,7.0,9.0,72,0.00,,,0.06,Wunderground v.1.15,2013-02-19 15:05:00,
2013-02-19 10:11:00,58.2,49.2,30.09,SW,215,7.0,7.0,72,0.00,,,0.06,Wunderground v.1.15,2013-02-19 15:11:00,
2013-02-19 10:20:00,57.9,50.0,30.08,SSW,206,7.0,9.0,75,0.00,,,0.06,Wunderground v.1.15,2013-02-19 15:20:00,
2013-02-19 10:26:00,58.1,50.2,30.07,SSW,213,8.0,9.0,75,0.00,,,0.06,Wunderground v.1.15,2013-02-19 15:26:00,
2013-02-19 10:35:00,58.7,50.1,30.07,SW,222,8.0,8.0,73,0.00,,,0.06,Wunderground v.1.15,2013-02-19 15:35:00,
2013-02-19 10:40:00,59.1,49.7,30.06,SW,224,10.0,10.0,71,0.00,,,0.07,Wunderground v.1.15,2013-02-19 15:40:00,
2013-02-19 10:45:00,59.2,49.8,30.06,WSW,239,10.0,10.0,71,0.00,,,0.07,Wunderground v.1.15,2013-02-19 15:45:00,
2013-02-19 10:51:00,59.3,49.9,30.06,SSW,202,8.0,10.0,71,0.00,,,0.07,Wunderground v.1.15,2013-02-19 15:51:00,
2013-02-19 11:00:00,59.5,49.3,30.06,WSW,239,8.0,10.0,69,0.00,,,0.07,Wunderground v.1.15,2013-02-19 16:00:00,
2013-02-19 11:10:00,59.8,49.2,30.05,SSW,212,8.0,8.0,68,0.00,,,0.07,Wunderground v.1.15,2013-02-19 16:10:00,
2013-02-19 11:20:00,60.0,49.0,30.05,SW,221,7.0,7.0,67,0.00,,,0.07,Wunderground v.1.15,2013-02-19 16:20:00,
2013-02-19 11:25:00,60.1,49.1,30.05,SW,221,6.0,7.0,67,0.00,,,0.07,Wunderground v.1.15,2013-02-19 16:25:00,
2013-02-19 11:31:00,60.1,49.1,30.05,SW,228,5.0,5.0,67,0.00,,,0.07,Wunderground v.1.15,2013-02-19 16:31:00,
2013-02-19 11:36:00,60.1,48.7,30.04,SW,229,6.0,9.0,66,0.00,,,0.07,Wunderground v.1.15,2013-02-19 16:36:00,
2013-02-19 11:45:00,60.5,49.1,30.04,SW,227,6.0,7.0,66,0.00,,,0.07,Wunderground v.1.15,2013-02-19 16:45:00,
2013-02-19 11:50:00,60.5,48.7,30.04,SSW,211,7.0,7.0,65,0.00,,,0.07,Wunderground v.1.15,2013-02-19 16:50:00,
2013-02-19 11:56:00,60.6,48.8,30.04,SW,223,7.0,7.0,65,0.00,,,0.07,Wunderground v.1.15,2013-02-19 16:56:00,
2013-02-19 12:05:00,60.6,48.4,30.03,West,260,7.0,8.0,64,0.00,,,0.07,Wunderground v.1.15,2013-02-19 17:05:00,
2013-02-19 12:10:00,60.6,48.8,30.03,SW,230,7.0,7.0,65,0.00,,,0.07,Wunderground v.1.15,2013-02-19 17:10:00,
2013-02-19 12:16:00,60.7,48.4,30.03,WSW,246,7.0,7.0,64,0.00,,,0.07,Wunderground v.1.15,2013-02-19 17:16:00,
2013-02-19 12:21:00,60.8,48.5,30.03,SW,228,6.0,6.0,64,0.00,,,0.07,Wunderground v.1.15,2013-02-19 17:21:00,
2013-02-19 12:30:00,60.7,48.9,30.03,West,278,5.0,5.0,65,0.00,,,0.07,Wunderground v.1.15,2013-02-19 17:30:00,
2013-02-19 12:35:00,60.6,48.8,30.02,SW,224,5.0,5.0,65,0.00,,,0.07,Wunderground v.1.15,2013-02-19 17:35:00,
2013-02-19 12:40:00,60.4,48.6,30.00,SW,220,4.0,4.0,65,0.00,,,0.08,Wunderground v.1.15,2013-02-19 17:40:00,
2013-02-19 12:46:00,60.3,48.9,30.01,West,265,4.0,4.0,66,0.00,,,0.08,Wunderground v.1.15,2013-02-19 17:46:00,
2013-02-19 12:55:00,59.8,49.2,30.00,West,268,5.0,5.0,68,0.00,,,0.08,Wunderground v.1.15,2013-02-19 17:55:00,
2013-02-19 13:05:00,58.7,50.4,30.00,West,278,4.0,5.0,74,0.00,,,0.08,Wunderground v.1.15,2013-02-19 18:05:00,
2013-02-19 13:10:00,58.4,50.9,29.99,West,277,3.0,3.0,76,0.00,,,0.08,Wunderground v.1.15,2013-02-19 18:10:00,
2013-02-19 13:16:00,58.4,50.9,29.99,West,276,3.0,4.0,76,0.00,,,0.08,Wunderground v.1.15,2013-02-19 18:16:00,
2013-02-19 13:26:00,58.3,51.5,29.98,West,264,3.0,3.0,78,0.00,,,0.08,Wunderground v.1.15,2013-02-19 18:26:00,
2013-02-19 13:35:00,58.2,51.4,29.98,SW,227,3.0,4.0,78,0.00,,,0.08,Wunderground v.1.15,2013-02-19 18:35:00,
2013-02-19 13:40:00,58.2,51.0,29.98,West,259,4.0,4.0,77,0.00,,,0.08,Wunderground v.1.15,2013-02-19 18:40:00,
2013-02-19 13:50:00,58.0,51.5,29.98,SW,236,5.0,5.0,79,0.00,,,0.08,Wunderground v.1.15,2013-02-19 18:50:00,
2013-02-19 14:00:00,58.0,51.5,29.97,SW,219,5.0,8.0,79,0.00,,,0.08,Wunderground v.1.15,2013-02-19 19:00:00,
2013-02-19 14:05:00,58.0,51.9,29.96,SSW,200,7.0,8.0,80,0.00,,,0.08,Wunderground v.1.15,2013-02-19 19:05:00,
2013-02-19 14:15:00,58.0,52.2,29.96,SW,219,7.0,8.0,81,0.00,,,0.08,Wunderground v.1.15,2013-02-19 19:15:00,
2013-02-19 14:20:00,57.8,52.0,29.96,SSW,198,6.0,6.0,81,0.00,,,0.08,Wunderground v.1.15,2013-02-19 19:20:00,
2013-02-19 14:26:00,57.7,52.2,29.96,SW,228,7.0,7.0,82,0.00,,,0.08,Wunderground v.1.15,2013-02-19 19:26:00,
2013-02-19 14:35:00,57.3,51.9,29.96,West,261,6.0,7.0,82,0.00,,,0.08,Wunderground v.1.15,2013-02-19 19:35:00,
2013-02-19 14:41:00,57.1,52.0,29.95,SW,223,7.0,7.0,83,0.00,,,0.08,Wunderground v.1.15,2013-02-19 19:41:00,
2013-02-19 14:46:00,56.6,52.1,29.95,SW,225,7.0,7.0,85,0.00,,,0.08,Wunderground v.1.15,2013-02-19 19:46:00,
2013-02-19 14:55:00,56.4,52.3,29.95,WSW,240,8.0,10.0,86,0.00,,,0.08,Wunderground v.1.15,2013-02-19 19:55:00,
2013-02-19 15:05:00,56.1,52.6,29.95,SSW,211,8.0,8.0,88,0.00,,,0.08,Wunderground v.1.15,2013-02-19 20:05:00,
2013-02-19 15:10:00,56.0,52.8,29.95,WSW,238,8.0,11.0,89,0.00,,,0.08,Wunderground v.1.15,2013-02-19 20:10:00,
2013-02-19 15:16:00,56.0,52.8,29.95,SSW,210,10.0,15.0,89,0.00,,,0.08,Wunderground v.1.15,2013-02-19 20:16:00,
2013-02-19 15:25:00,55.9,53.3,29.94,SSW,209,9.0,11.0,91,0.00,,,0.08,Wunderground v.1.15,2013-02-19 20:25:00,
2013-02-19 15:31:00,56.0,53.4,29.93,SW,214,9.0,14.0,91,0.00,,,0.09,Wunderground v.1.15,2013-02-19 20:31:00,
2013-02-19 15:40:00,56.2,53.6,29.93,SW,221,11.0,11.0,91,0.00,,,0.09,Wunderground v.1.15,2013-02-19 20:40:00,
2013-02-19 15:50:00,56.3,53.7,29.92,SSW,207,11.0,12.0,91,0.00,,,0.09,Wunderground v.1.15,2013-02-19 20:50:00,
2013-02-19 15:55:00,56.4,53.8,29.92,SW,223,10.0,13.0,91,0.00,,,0.09,Wunderground v.1.15,2013-02-19 20:55:00,
2013-02-19 16:05:00,56.6,54.0,29.92,SW,234,10.0,13.0,91,0.00,,,0.09,Wunderground v.1.15,2013-02-19 21:05:00,
2013-02-19 16:10:00,56.6,54.0,29.92,SW,234,10.0,10.0,91,0.00,,,0.09,Wunderground v.1.15,2013-02-19 21:10:00,
2013-02-19 16:16:00,56.6,54.0,29.92,WSW,242,10.0,10.0,91,0.00,,,0.09,Wunderground v.1.15,2013-02-19 21:16:00,
2013-02-19 16:25:00,56.4,54.1,29.92,SW,228,9.0,10.0,92,0.00,,,0.09,Wunderground v.1.15,2013-02-19 21:25:00,
2013-02-19 16:35:00,56.4,54.1,29.92,WSW,254,9.0,9.0,92,0.00,,,0.09,Wunderground v.1.15,2013-02-19 21:35:00,
2013-02-19 16:40:00,56.4,54.1,29.92,SW,233,8.0,11.0,92,0.00,,,0.09,Wunderground v.1.15,2013-02-19 21:40:00,
2013-02-19 16:45:00,56.4,54.1,29.92,SW,228,9.0,11.0,92,0.00,,,0.09,Wunderground v.1.15,2013-02-19 21:45:00,
2013-02-19 16:51:00,56.4,54.1,29.92,WSW,237,9.0,9.0,92,0.00,,,0.09,Wunderground v.1.15,2013-02-19 21:51:00,
2013-02-19 17:00:00,56.4,54.4,29.92,West,281,7.0,8.0,93,0.00,,,0.09,Wunderground v.1.15,2013-02-19 22:00:00,
2013-02-19 17:10:00,56.4,54.4,29.92,SW,225,8.0,8.0,93,0.00,,,0.09,Wunderground v.1.15,2013-02-19 22:10:00,
2013-02-19 17:20:00,56.4,54.4,29.92,SW,223,8.0,12.0,93,0.00,,,0.09,Wunderground v.1.15,2013-02-19 22:20:00,
2013-02-19 17:26:00,56.4,54.4,29.92,WSW,255,9.0,18.0,93,0.00,,,0.10,Wunderground v.1.15,2013-02-19 22:26:00,
2013-02-19 17:36:00,56.4,54.4,29.92,SW,227,10.0,13.0,93,0.00,,,0.10,Wunderground v.1.15,2013-02-19 22:36:00,
2013-02-19 17:45:00,56.4,54.4,29.93,WSW,255,8.0,9.0,93,0.00,,,0.10,Wunderground v.1.15,2013-02-19 22:45:00,
2013-02-19 17:50:00,56.3,54.3,29.93,WSW,246,7.0,10.0,93,0.00,,,0.10,Wunderground v.1.15,2013-02-19 22:50:00,
2013-02-19 18:00:00,56.2,54.2,29.93,SW,224,8.0,10.0,93,0.00,,,0.10,Wunderground v.1.15,2013-02-19 23:00:00,
2013-02-19 18:05:00,56.2,54.2,29.92,SW,229,8.0,10.0,93,0.00,,,0.10,Wunderground v.1.15,2013-02-19 23:05:00,
2013-02-19 18:15:00,56.1,54.1,29.93,SW,234,8.0,11.0,93,0.00,,,0.10,Wunderground v.1.15,2013-02-19 23:15:00,
2013-02-19 18:21:00,56.1,54.1,29.92,SW,224,9.0,13.0,93,0.00,,,0.10,Wunderground v.1.15,2013-02-19 23:21:00,
2013-02-19 18:26:00,56.2,54.2,29.93,West,273,9.0,13.0,93,0.00,,,0.10,Wunderground v.1.15,2013-02-19 23:26:00,
2013-02-19 18:35:00,56.2,54.2,29.93,West,261,8.0,8.0,93,0.00,,,0.10,Wunderground v.1.15,2013-02-19 23:35:00,
2013-02-19 18:40:00,56.2,53.9,29.93,WSW,258,9.0,9.0,92,0.00,,,0.10,Wunderground v.1.15,2013-02-19 23:40:00,
2013-02-19 18:45:00,56.2,53.9,29.93,WSW,239,8.0,9.0,92,0.00,,,0.10,Wunderground v.1.15,2013-02-19 23:45:00,
2013-02-19 18:55:00,56.2,53.9,29.93,WSW,244,7.0,8.0,92,0.00,,,0.10,Wunderground v.1.15,2013-02-19 23:55:00,
2013-02-19 19:00:00,56.2,53.9,29.93,SW,218,7.0,8.0,92,0.00,,,0.10,Wunderground v.1.15,2013-02-20 00:00:00,
2013-02-19 19:06:00,56.1,53.8,29.93,WSW,252,7.0,8.0,92,0.00,,,0.10,Wunderground v.1.15,2013-02-20 00:06:00,
2013-02-19 19:15:00,56.1,53.5,29.94,WNW,286,9.0,9.0,91,0.00,,,0.10,Wunderground v.1.15,2013-02-20 00:15:00,
2013-02-19 19:20:00,56.0,53.4,29.94,WSW,249,8.0,9.0,91,0.00,,,0.10,Wunderground v.1.15,2013-02-20 00:20:00,
2013-02-19 19:30:00,55.8,53.2,29.94,SW,225,7.0,10.0,91,0.00,,,0.10,Wunderground v.1.15,2013-02-20 00:30:00,
2013-02-19 19:35:00,55.6,52.7,29.94,SW,235,6.0,10.0,90,0.00,,,0.10,Wunderground v.1.15,2013-02-20 00:35:00,
2013-02-19 19:40:00,55.5,52.6,29.94,SW,232,6.0,6.0,90,0.00,,,0.10,Wunderground v.1.15,2013-02-20 00:40:00,
2013-02-19 19:46:00,55.3,52.7,29.94,WSW,254,6.0,8.0,91,0.00,,,0.10,Wunderground v.1.15,2013-02-20 00:46:00,
2013-02-19 19:55:00,55.1,52.5,29.94,West,263,6.0,6.0,91,0.00,,,0.11,Wunderground v.1.15,2013-02-20 00:55:00,
2013-02-19 20:00:00,55.1,52.5,29.94,West,265,5.0,5.0,91,0.00,,,0.11,Wunderground v.1.15,2013-02-20 01:00:00,
2013-02-19 20:06:00,55.0,52.4,29.94,West,263,6.0,7.0,91,0.00,,,0.11,Wunderground v.1.15,2013-02-20 01:06:00,
2013-02-19 20:15:00,54.8,51.9,29.95,WSW,256,8.0,9.0,90,0.00,,,0.11,Wunderground v.1.15,2013-02-20 01:15:00,
2013-02-19 20:21:00,54.6,51.7,29.96,WNW,286,8.0,8.0,90,0.00,,,0.11,Wunderground v.1.15,2013-02-20 01:21:00,
2013-02-19 20:30:00,54.2,51.3,29.96,WSW,252,9.0,14.0,90,0.00,,,0.11,Wunderground v.1.15,2013-02-20 01:30:00,
2013-02-19 20:40:00,53.7,50.5,29.96,West,274,8.0,8.0,89,0.00,,,0.11,Wunderground v.1.15,2013-02-20 01:40:00,
2013-02-19 20:46:00,53.5,50.3,29.96,West,263,8.0,8.0,89,0.00,,,0.11,Wunderground v.1.15,2013-02-20 01:46:00,
2013-02-19 20:55:00,53.1,49.9,29.96,West,267,6.0,10.0,89,0.00,,,0.11,Wunderground v.1.15,2013-02-20 01:55:00,
2013-02-19 21:00:00,52.8,49.6,29.97,West,265,6.0,6.0,89,0.00,,,0.11,Wunderground v.1.15,2013-02-20 02:00:00,
2013-02-19 21:10:00,52.4,49.6,29.97,West,268,6.0,6.0,90,0.00,,,0.11,Wunderground v.1.15,2013-02-20 02:10:00,
2013-02-19 21:15:00,52.3,49.5,29.97,WSW,249,5.0,6.0,90,0.00,,,0.11,Wunderground v.1.15,2013-02-20 02:15:00,
2013-02-19 21:25:00,51.9,49.1,29.97,West,265,5.0,5.0,90,0.00,,,0.11,Wunderground v.1.15,2013-02-20 02:25:00,
2013-02-19 21:30:00,51.6,49.1,29.97,WSW,243,4.0,5.0,91,0.00,,,0.11,Wunderground v.1.15,2013-02-20 02:30:00,
2013-02-19 21:36:00,51.5,49.0,29.97,WSW,241,4.0,6.0,91,0.00,,,0.11,Wunderground v.1.15,2013-02-20 02:36:00,
2013-02-19 21:45:00,51.2,48.7,29.97,SW,225,4.0,5.0,91,0.00,,,0.11,Wunderground v.1.15,2013-02-20 02:45:00,
2013-02-19 21:50:00,51.1,48.6,29.97,West,265,4.0,4.0,91,0.00,,,0.11,Wunderground v.1.15,2013-02-20 02:50:00,
2013-02-19 21:55:00,51.0,48.5,29.97,WSW,254,4.0,4.0,91,0.00,,,0.11,Wunderground v.1.15,2013-02-20 02:55:00,
2013-02-19 22:01:00,50.9,48.7,29.97,WSW,250,4.0,4.0,92,0.00,,,0.11,Wunderground v.1.15,2013-02-20 03:01:00,
2013-02-19 22:10:00,50.6,48.4,29.97,West,265,3.0,4.0,92,0.00,,,0.11,Wunderground v.1.15,2013-02-20 03:10:00,
2013-02-19 22:15:00,50.5,48.3,29.96,WSW,258,3.0,4.0,92,0.00,,,0.11,Wunderground v.1.15,2013-02-20 03:15:00,
2013-02-19 22:21:00,50.4,48.2,29.96,WSW,244,4.0,4.0,92,0.00,,,0.11,Wunderground v.1.15,2013-02-20 03:21:00,
2013-02-19 22:30:00,50.2,48.0,29.96,West,267,4.0,4.0,92,0.00,,,0.11,Wunderground v.1.15,2013-02-20 03:30:00,
2013-02-19 22:35:00,50.1,47.9,29.97,West,267,4.0,6.0,92,0.00,,,0.11,Wunderground v.1.15,2013-02-20 03:35:00,
2013-02-19 22:41:00,50.0,47.8,29.96,West,262,4.0,4.0,92,0.00,,,0.11,Wunderground v.1.15,2013-02-20 03:41:00,
2013-02-19 22:50:00,49.7,47.5,29.97,WSW,255,4.0,5.0,92,0.00,,,0.11,Wunderground v.1.15,2013-02-20 03:50:00,
2013-02-19 22:55:00,49.6,47.4,29.97,WSW,252,4.0,5.0,92,0.00,,,0.11,Wunderground v.1.15,2013-02-20 03:55:00,
2013-02-19 23:01:00,49.5,47.3,29.97,WSW,253,4.0,6.0,92,0.00,,,0.12,Wunderground v.1.15,2013-02-20 04:01:00,
2013-02-19 23:10:00,49.4,47.2,29.97,West,263,4.0,6.0,92,0.00,,,0.12,Wunderground v.1.15,2013-02-20 04:10:00,
2013-02-19 23:15:00,49.4,47.2,29.96,WSW,245,5.0,6.0,92,0.00,,,0.12,Wunderground v.1.15,2013-02-20 04:15:00,
2013-02-19 23:25:00,49.4,47.2,29.97,WSW,248,5.0,5.0,92,0.00,,,0.12,Wunderground v.1.15,2013-02-20 04:25:00,
2013-02-19 23:30:00,49.2,46.7,29.97,WSW,248,5.0,7.0,91,0.00,,,0.12,Wunderground v.1.15,2013-02-20 04:30:00,
2013-02-19 23:35:00,49.1,46.6,29.97,West,261,5.0,7.0,91,0.00,,,0.12,Wunderground v.1.15,2013-02-20 04:35:00,
2013-02-19 23:45:00,48.9,46.7,29.97,West,270,4.0,5.0,92,0.00,,,0.12,Wunderground v.1.15,2013-02-20 04:45:00,
2013-02-19 23:51:00,48.7,46.5,29.97,West,273,5.0,7.0,92,0.00,,,0.12,Wunderground v.1.15,2013-02-20 04:51:00,